Regional Weather Roundup
Issued by NWS

Home | Current Version | Previous Version | Text Only | Print | Product List | Glossary On
Versions: 1 2 3 4 5 6 7 8 9 10 11 12 13 14 15 16 17 18 19 20 21 22 23 24 25 26 27 28 29 30 31 32 33 34 35 36 37 38 39 40 41 42 43 44 45 46 47 48 49 50
000
ASCA44 KEWX 241411
RWRMX

LATIN AMERICA AND CARIBBEAN REGIONAL WEATHER ROUNDUP
NATIONAL WEATHER SERVICE AUSTIN/SAN ANTONIO TX
900 AM CDT WED AUG 24 2016

NOTE: "FAIR" INDICATED FEW OR NO CLOUDS BELOW 12,000 FEET WITH NO
SIGNIFICANT WEATHER AND/OR OBSTRUCTIONS TO VISIBILITY.

BAJA CALIFORNIA

CITY           SKY/WX    TMP DP  RH WIND       PRES   REMARKS
LORETO         MOSUNNY   84  75  74 N7        29.92S HX  92
LA PAZ         MOSUNNY   77  73  88 S6        29.98
MEXICALI       CLEAR     77  68  73 SE6       29.91
S.J. DEL CABO  MOSUNNY   77  70  78 CALM      29.98R
TIJUANA        CLOUDY    64  59  82 N5        30.06R FOG

NORTHWESTERN MEXICO

CITY           SKY/WX    TMP DP  RH WIND       PRES   REMARKS
CULIACAN       MOSUNNY   79  75  89 NE5       29.99R
DURANGO        CLOUDY    59  59 100 CALM      30.38R
GUAYMAS        SUNNY     84  81  89 CALM      29.92  HX  98
HERMOSILLO     SUNNY     84  77  79 E7        30.01R HX  94
CD. JUAREZ     PTSUNNY   70  55  60 S9        30.08S
OBREGON        MOSUNNY   79  77  94 E2        29.95

NORTHEASTERN MEXICO

CITY           SKY/WX    TMP DP  RH WIND       PRES   REMARKS
CHIHUAHUA      MOSUNNY   61  59  94 CALM      30.24R
MATAMOROS      MOSUNNY   84  77  79 S5        30.09S HX  94
MONCLOVA       SUNNY     77  68  73 CALM      30.10
MONTERREY      SUNNY     73  66  78 E5        30.09R
NUEVO LAREDO   SUNNY     79  70  73 SE14      30.06S
PIEDRAS NEGRAS SUNNY     79  72  78 SE8       30.10R
REYNOSA        SUNNY     77  68  73 SE6       30.09R
SALTILLO       SUNNY     75  63  64 S14       30.29S
TORREON        MOSUNNY   75  63  64 SE6       30.20R
CD. VICTORIA   SUNNY     75  70  83 SE8       30.12S

WESTERN MEXICO

CITY           SKY/WX    TMP DP  RH WIND       PRES   REMARKS
AGUASCALIENTES PTSUNNY   61  55  82 SW2       30.40R
COLIMA         PTSUNNY   75  68  78 N17       30.10R
DEL BAJIO      CLOUDY    61  59  94 CALM      30.42R
GUADALAJARA    PTSUNNY   63  57  82 N3        30.30R HAZE
MANZANILLO     MOSUNNY   82  75  78 NE6       29.94R
MAZATLAN       CLOUDY    75  72  88 CALM      29.97F
P. VALLARTA    CLOUDY    77  75  94 NE5       29.97S
URUAPAN        CLOUDY    63  61  94 CALM      30.27S
ZACATECAS        N/A    N/A N/A N/A MISG        N/A

CENTRAL MEXICO

CITY           SKY/WX    TMP DP  RH WIND       PRES   REMARKS
CUERNAVACA     PTSUNNY   66  61  82 CALM      30.28R
MEXICO CITY    CLOUDY    59  54  82 NE6       30.46R
MORELIA        CLOUDY    59  59 100 CALM      30.37R
POZA RICA      CLOUDY    75  73  94 CALM      30.15R
PUEBLA         CLOUDY    55  54  94 CALM      30.46
QUERETARO      LGT RAIN  59  57  94 E8        30.45R
S. LUIS POTOSI PTSUNNY   63  50  63 E6        30.39R
TAMPICO        MOSUNNY   77  75  94 CALM      30.11F
TOLUCA         CLOUDY    54  50  87 NE2       30.51R

SOUTHERN MEXICO

CITY           SKY/WX    TMP DP  RH WIND       PRES   REMARKS
ACAPULCO       CLOUDY    79  72  78 N6        29.93R
B. DE HUATULCO PTSUNNY   77  68  73 CALM      29.99R
OAXACA         CLOUDY    63  59  88 N3        30.36R
P. ESCONDIDO   MOSUNNY   75  70  83 NE9       30.01R
VERACRUZ       CLOUDY    73  73 100 NW3       30.13R
ZIHUATANEJO    PTSUNNY   77  72  83 CALM      29.94R

YUCATAN PENINSULA

CITY           SKY/WX    TMP DP  RH WIND       PRES   REMARKS
CAMPECHE       MOSUNNY   82  77  83 E6        30.03R HX  91
CANCUN         MOSUNNY   84  81  89 N5        30.04R HX  98
CHETUMAL       MOSUNNY   81  79  94 NE7       30.03R
CD. DEL CARMEN PTSUNNY   86  73  66 E7        30.04R HX  93
COZUMEL        MOSUNNY   82  79  89 NE12      30.04R HX  93
MERIDA         MOSUNNY   86  77  74 NE5       30.06R HX  97
MINATITLAN     CLOUDY    79  70  73 CALM      30.05R
TAPACHULA      SUNNY     82  73  74 CALM      29.88
TUX. GUTIERREZ PTSUNNY   72  68  88 NE2       30.10R
VILLAHERMOSA   CLOUDY    77  72  83 E5        30.06S

CENTRAL AMERICA

CITY           SKY/WX    TMP DP  RH WIND       PRES   REMARKS
BELIZE CITY    MOSUNNY   81  81 100 W6        30.04R HX  91

CARIBBEAN

CITY           SKY/WX    TMP DP  RH WIND       PRES   REMARKS
ARUBA          MOSUNNY   90  75  62 E14       29.86F HX 100
CURACAO        MOSUNNY   88  75  66 E13       29.92S HX  97
KINGSTON       PTSUNNY   86  77  74 VRB2      29.92S HX  97
NASSAU         PTSUNNY   88  75  66 CALM      30.06R HX  97
SAN JUAN       PTSUNNY   84  79  84 CALM      29.89S HX  96
SANTO DOMINGO  MOSUNNY   84  77  79 NW7       29.89S HX  94
ST. CROIX      PTSUNNY   86  75  70 CALM      29.89  HX  95
ST. KITTS      LGT RAIN  75  75 100 S7        29.94R
ST. MAARTEN    LGT RAIN  79  77  94 SE29G41   29.86
ST. THOMAS     PTSUNNY   82  81  94 SE6       29.89  HX  95

$$





USA.gov is the U.S. government's official web portal to all federal, state and local government web resources and services.